Weather History for Vinton, IA

Change the Weather History Date:

Thursday, January 23, 2014

  Actual Average Record
Temperature  
Mean Temperature -4 °F -  
Max Temperature 2 °F 31 °F 53 °F (1981)
Min Temperature -9 °F 12 °F -22 °F (1963)
Degree Days  
Heating Degree Days 68    
Moisture  
Dew Point -13 °F    
Average Humidity 66    
Maximum Humidity 78    
Minimum Humidity 57    
Precipitation  
Precipitation 0.00 in - - ()
Sea Level Pressure  
Sea Level Pressure 30.60 in    
Wind  
Wind Speed 12 mph (WNW)    
Max Wind Speed 17 mph    
Max Gust Speed 24 mph    
Visibility 10 miles    
Events      
Averages and records for this station are not official NWS values.
T = Trace of Precipitation, MM = Missing Value Source: NWS Daily Summary

Daily Weather History Graph

Daily Weather History Graph

Search for Another Location

Airport:

Trip Planner

Search our weather history database for the weather conditions in past years. The results will help you decide how hot, cold, wet, or windy it might be!

Date:

Astronomy

Jan. 23, 2014 Rise Set
Actual Time 7:29 AM CST 5:11 PM CST
Civil Twilight 6:59 AM CST 5:41 PM CST
Nautical Twilight 6:24 AM CST 6:15 PM CST
Astronomical Twilight 5:51 AM CST 6:48 PM CST
Moon No Moon Rise 10:56 AM CST (1/23)
Length of Visible Light 10h 42m
Length of Day
9h 41m
Waning Gibbous, 55% of the Moon is Illuminated
Jan 23
Waning Gibbous
Jan 23
Last Quarter
Jan 30
New
Feb 6
First Quarter
Feb 14
Full

Hourly Weather History & Observations

Time (CST) Temp. Windchill Dew Point Humidity Pressure Visibility Wind Dir Wind Speed Gust Speed Precip Events Conditions
12:15 AM -3.1 °F -23.3 °F -12.1 °F 65% 30.41 in 10.0 mi NW 15.0 mph 19.6 mph N/A   Clear
12:35 AM -3.1 °F -22.6 °F -12.3 °F 65% 30.42 in 10.0 mi NW 13.8 mph 21.9 mph N/A   Clear
12:55 AM -3.6 °F -24.7 °F -12.8 °F 65% 30.42 in 10.0 mi NW 16.1 mph 24.2 mph N/A   Clear
1:15 AM -4.4 °F -26.3 °F -13.9 °F 64% 30.43 in 10.0 mi NNW 17.3 mph 24.2 mph N/A   Clear
1:35 AM -5.3 °F -23.7 °F -14.8 °F 63% 30.44 in 10.0 mi NW 11.5 mph 18.4 mph N/A   Clear
1:55 AM -5.8 °F -26.0 °F -15.0 °F 65% 30.44 in 10.0 mi NW 13.8 mph 20.7 mph N/A   Clear
2:15 AM -5.8 °F -26.8 °F -15.0 °F 65% 30.46 in 10.0 mi NW 15.0 mph 20.7 mph N/A   Clear
2:35 AM -5.8 °F -25.2 °F -15.0 °F 65% 30.47 in 10.0 mi NW 12.7 mph 18.4 mph N/A   Clear
2:55 AM -5.8 °F -24.4 °F -15.0 °F 65% 30.48 in 10.0 mi NNW 11.5 mph 19.6 mph N/A   Clear
3:15 AM -5.8 °F -24.4 °F -15.0 °F 65% 30.48 in 10.0 mi NW 11.5 mph 19.6 mph N/A   Clear
3:35 AM -5.8 °F -24.4 °F -14.8 °F 65% 30.49 in 10.0 mi NW 11.5 mph 17.3 mph N/A   Clear
3:55 AM -5.8 °F -23.4 °F -14.8 °F 65% 30.50 in 10.0 mi NW 10.4 mph 18.4 mph N/A   Clear
4:15 AM -7.2 °F -27.9 °F -16.2 °F 65% 30.51 in 10.0 mi NW 13.8 mph 17.3 mph N/A   Clear
4:35 AM -7.8 °F -26.8 °F -16.6 °F 65% 30.52 in 10.0 mi NW 11.5 mph 19.6 mph N/A   Clear
4:55 AM -8.0 °F -27.1 °F -16.8 °F 65% 30.54 in 10.0 mi NW 11.5 mph 17.3 mph N/A   Clear
5:15 AM -8.1 °F -26.3 °F -16.8 °F 66% 30.55 in 10.0 mi NW 10.4 mph - N/A   Clear
5:35 AM -8.1 °F -28.2 °F -16.8 °F 66% 30.56 in 10.0 mi NW 12.7 mph 20.7 mph N/A   Clear
5:55 AM -8.1 °F -28.2 °F -16.8 °F 66% 30.57 in 10.0 mi NW 12.7 mph 17.3 mph N/A   Clear
6:15 AM -8.1 °F -27.3 °F -16.8 °F 66% 30.59 in 10.0 mi NW 11.5 mph 18.4 mph N/A   Clear
6:35 AM -8.1 °F -29.0 °F -16.8 °F 66% 30.60 in 10.0 mi NNW 13.8 mph 20.7 mph N/A   Clear
6:55 AM -8.1 °F -29.0 °F -16.8 °F 66% 30.61 in 10.0 mi NW 13.8 mph 18.4 mph N/A   Clear
7:15 AM -8.3 °F -28.4 °F -17.0 °F 66% 30.61 in 10.0 mi NW 12.7 mph 18.4 mph N/A   Clear
7:35 AM -9.4 °F -29.8 °F -17.9 °F 66% 30.63 in 10.0 mi NW 12.7 mph 18.4 mph N/A   Clear
7:55 AM -9.0 °F -29.3 °F -17.9 °F 65% 30.63 in 10.0 mi NNW 12.7 mph - N/A   Clear
8:15 AM -8.1 °F -26.3 °F -17.1 °F 65% 30.64 in 10.0 mi NW 10.4 mph - N/A   Clear
8:35 AM -8.1 °F -26.3 °F -17.5 °F 64% 30.65 in 10.0 mi NNW 10.4 mph - N/A   Clear
8:55 AM -8.1 °F -27.3 °F -17.9 °F 63% 30.66 in 10.0 mi NNW 11.5 mph 16.1 mph N/A   Clear
9:15 AM -7.8 °F -26.8 °F -17.9 °F 61% 30.67 in 10.0 mi NNW 11.5 mph 17.3 mph N/A   Clear
9:35 AM -6.9 °F -25.7 °F -17.0 °F 62% 30.67 in 10.0 mi NNW 11.5 mph 16.1 mph N/A   Clear
9:55 AM -5.8 °F -25.2 °F -16.1 °F 61% 30.68 in 10.0 mi NNW 12.7 mph 18.4 mph N/A   Clear
10:15 AM -5.8 °F -24.4 °F -16.2 °F 61% 30.68 in 10.0 mi NNW 11.5 mph - N/A   Clear
10:35 AM -5.8 °F -25.2 °F -16.8 °F 59% 30.69 in 10.0 mi NNW 12.7 mph - N/A   Clear
10:55 AM -4.4 °F -21.6 °F -15.7 °F 58% 30.69 in 10.0 mi NNW 10.4 mph - N/A   Clear
11:15 AM -3.5 °F -19.5 °F -14.8 °F 58% 30.70 in 10.0 mi NNW 9.2 mph - N/A   Clear
11:35 AM -3.1 °F -22.6 °F -14.8 °F 57% 30.70 in 10.0 mi NW 13.8 mph 17.3 mph N/A   Clear
11:55 AM -3.1 °F -23.3 °F -14.1 °F 59% 30.70 in 10.0 mi WNW 15.0 mph - N/A   Clear
12:15 PM -2.9 °F -23.1 °F -13.7 °F 60% 30.69 in 10.0 mi WNW 15.0 mph 18.4 mph N/A   Clear
12:35 PM -1.1 °F -20.1 °F -11.9 °F 60% 30.69 in 10.0 mi NW 13.8 mph 20.7 mph N/A   Clear
12:55 PM -0.6 °F -20.8 °F -11.6 °F 60% 30.69 in 10.0 mi WNW 16.1 mph - N/A   Clear
1:15 PM -0.6 °F -19.4 °F -11.6 °F 60% 30.68 in 10.0 mi WNW 13.8 mph - N/A   Clear
1:35 PM 0.1 °F -17.7 °F -11.0 °F 59% 30.68 in 10.0 mi WNW 12.7 mph 19.6 mph N/A   Clear
1:55 PM 0.5 °F -18.0 °F -10.5 °F 60% 30.67 in 10.0 mi WNW 13.8 mph 18.4 mph N/A   Clear
2:15 PM 1.0 °F -14.9 °F -10.3 °F 59% 30.67 in 10.0 mi NW 10.4 mph - N/A   Clear
2:35 PM 1.9 °F -15.5 °F -9.6 °F 59% 30.67 in 10.0 mi WNW 12.7 mph - N/A   Clear
2:55 PM 1.9 °F -16.9 °F -9.2 °F 60% 30.67 in 10.0 mi WNW 15.0 mph 18.4 mph N/A   Clear
3:15 PM 2.3 °F -13.4 °F -8.7 °F 60% 30.67 in 10.0 mi NW 10.4 mph - N/A   Clear
3:35 PM 1.9 °F -14.7 °F -9.6 °F 59% 30.67 in 10.0 mi WNW 11.5 mph - N/A   Clear
3:55 PM 1.9 °F -15.5 °F -8.9 °F 61% 30.67 in 10.0 mi WNW 12.7 mph 17.3 mph N/A   Clear
4:15 PM 1.9 °F -12.9 °F -8.7 °F 61% 30.67 in 10.0 mi WNW 9.2 mph - N/A   Clear
4:35 PM 1.8 °F -14.9 °F -9.6 °F 59% 30.67 in 10.0 mi WNW 11.5 mph - N/A   Clear
4:55 PM 0.5 °F -13.6 °F -9.8 °F 62% 30.67 in 10.0 mi WNW 8.1 mph - N/A   Clear
5:15 PM -0.6 °F -14.9 °F -10.3 °F 64% 30.66 in 10.0 mi WNW 8.1 mph - N/A   Clear
5:35 PM -0.6 °F -12.2 °F -9.4 °F 66% 30.66 in 10.0 mi WNW 5.8 mph - N/A   Clear
5:55 PM -0.6 °F -10.6 °F -8.5 °F 69% 30.66 in 10.0 mi WNW 4.6 mph - N/A   Clear
6:15 PM -1.8 °F -12.0 °F -8.9 °F 72% 30.66 in 10.0 mi West 4.6 mph - N/A   Clear
6:35 PM -1.8 °F -12.0 °F -8.7 °F 73% 30.65 in 10.0 mi West 4.6 mph - N/A   Clear
6:55 PM -1.8 °F -13.7 °F -8.3 °F 74% 30.65 in 10.0 mi West 5.8 mph - N/A   Clear
7:15 PM -2.4 °F -12.7 °F -8.9 °F 74% 30.64 in 10.0 mi West 4.6 mph - N/A   Clear
7:35 PM -3.1 °F -11.4 °F -9.6 °F 74% 30.64 in 10.0 mi WSW 3.5 mph - N/A   Clear
7:55 PM -3.1 °F -13.5 °F -9.4 °F 74% 30.62 in 10.0 mi WSW 4.6 mph - N/A   Clear
8:15 PM -4.2 °F -12.6 °F -10.3 °F 75% 30.61 in 10.0 mi SW 3.5 mph - N/A   Clear
8:35 PM -4.5 °F -15.2 °F -10.3 °F 76% 30.60 in 10.0 mi SSW 4.6 mph - N/A   Clear
8:55 PM -4.4 °F -16.7 °F -9.8 °F 78% 30.59 in 10.0 mi SW 5.8 mph - N/A   Clear
9:15 PM -4.4 °F -15.0 °F -9.9 °F 77% 30.58 in 10.0 mi SW 4.6 mph - N/A   Clear
9:55 PM -5.8 °F -16.7 °F -11.4 °F 77% 30.56 in 10.0 mi South 4.6 mph - N/A   Clear
10:15 PM -5.8 °F -18.4 °F -11.2 °F 77% 30.55 in 10.0 mi South 5.8 mph - N/A   Clear
10:35 PM -8.1 °F -21.2 °F -14.1 °F 75% 30.54 in 10.0 mi South 5.8 mph - N/A   Clear
10:55 PM -5.8 °F -18.4 °F -11.2 °F 77% 30.53 in 10.0 mi South 5.8 mph - N/A   Clear
11:15 PM -5.6 °F -18.2 °F -11.2 °F 77% 30.50 in 10.0 mi South 5.8 mph - N/A   Clear
11:35 PM -5.8 °F -16.7 °F -11.2 °F 77% 30.50 in 10.0 mi South 4.6 mph - N/A   Clear
11:55 PM -5.8 °F -18.4 °F -11.2 °F 77% 30.48 in 10.0 mi South 5.8 mph - N/A   Clear